When you browse on this site, cookies collect data to enhance your experience and personalize the content and advertising you see.
Visit our Privacy Policy to learn more. By continuing to use the site, you agree to this use of cookies and data.
  • En España
  • Lista de países
  • Para 7 días
  • Temperatura del agua
  • Mapa Satelital
  • El tiempo en el mapa
  • Informadores
  • user-avatar
    Iniciar sesión

    Tiempo cada hora Afonki

    Hoy, 19 Julio, Viernes

    Tiempo Temperatura Precipitaciones Viento Presión Humedad
    00:00 +13°C° 1.1 mm 4 mps 736 mmHg 97%
    01:00 +13°C° 1.1 mm 4 mps 736 mmHg 97%
    02:00 +13°C° 1.1 mm 5 mps 736 mmHg 97%
    03:00 +13°C° 0.4 mm 4 mps 736 mmHg 97%
    04:00 +13°C° 0.4 mm 4 mps 737 mmHg 97%
    05:00 +13°C° 0.4 mm 4 mps 737 mmHg 97%
    06:00 +14°C° 0.6 mm 4 mps 737 mmHg 97%
    07:00 +14°C° 0.6 mm 4 mps 738 mmHg 96%
    08:00 +14°C° 0.6 mm 4 mps 738 mmHg 96%
    09:00 +14°C° 0.4 mm 5 mps 738 mmHg 96%
    10:00 +14°C° 0.4 mm 5 mps 739 mmHg 95%
    11:00 +14°C° 0.4 mm 5 mps 739 mmHg 95%
    12:00 +15°C° 0.2 mm 5 mps 739 mmHg 92%
    13:00 +16°C° 0.2 mm 6 mps 739 mmHg 88%
    14:00 +16°C° 0.2 mm 6 mps 740 mmHg 85%
    15:00 +17°C° 0.1 mm 6 mps 740 mmHg 83%
    16:00 +17°C° 0.1 mm 6 mps 740 mmHg 81%
    17:00 +17°C° 0.1 mm 6 mps 741 mmHg 79%
    18:00 +16°C° 0 mm 5 mps 741 mmHg 80%
    19:00 +15°C° 0 mm 4 mps 741 mmHg 81%
    20:00 +14°C° 0 mm 4 mps 741 mmHg 83%
    21:00 +14°C° 0 mm 4 mps 741 mmHg 83%
    22:00 +14°C° 0 mm 4 mps 741 mmHg 83%
    23:00 +14°C° 0 mm 4 mps 742 mmHg 84%

    Mañana, 20 Julio, Sábado

    Tiempo Temperatura Precipitaciones Viento Presión Humedad
    00:00 +14°C° 0 mm 4 mps 742 mmHg 87%
    01:00 +13°C° 0 mm 4 mps 742 mmHg 90%
    02:00 +12°C° 0 mm 3 mps 742 mmHg 94%
    03:00 +12°C° 0 mm 3 mps 743 mmHg 94%
    04:00 +12°C° 0 mm 3 mps 743 mmHg 94%
    05:00 +12°C° 0 mm 3 mps 743 mmHg 94%
    06:00 +13°C° 0 mm 3 mps 743 mmHg 90%
    07:00 +15°C° 0 mm 4 mps 744 mmHg 85%
    08:00 +17°C° 0 mm 4 mps 744 mmHg 81%
    09:00 +18°C° 0.1 mm 4 mps 744 mmHg 79%
    10:00 +19°C° 0.1 mm 4 mps 745 mmHg 77%
    11:00 +20°C° 0.1 mm 5 mps 745 mmHg 75%
    12:00 +21°C° 0.5 mm 5 mps 745 mmHg 74%
    13:00 +21°C° 0.5 mm 5 mps 745 mmHg 74%
    14:00 +22°C° 0.5 mm 5 mps 745 mmHg 73%
    15:00 +22°C° 0.3 mm 4 mps 745 mmHg 74%
    16:00 +22°C° 0.3 mm 4 mps 745 mmHg 76%
    17:00 +21°C° 0.3 mm 3 mps 745 mmHg 77%
    18:00 +20°C° 0 mm 3 mps 745 mmHg 80%
    19:00 +18°C° 0 mm 3 mps 745 mmHg 82%
    20:00 +17°C° 0 mm 3 mps 746 mmHg 85%
    21:00 +16°C° 0 mm 2 mps 746 mmHg 86%
    22:00 +15°C° 0 mm 2 mps 746 mmHg 88%
    23:00 +14°C° 0 mm 2 mps 746 mmHg 89%

    Pasado mañana, 21 Julio, Domingo

    Tiempo Temperatura Precipitaciones Viento Presión Humedad
    00:00 +14°C° 0 mm 2 mps 746 mmHg 90%
    01:00 +14°C° 0 mm 2 mps 746 mmHg 90%
    02:00 +13°C° 0 mm 2 mps 746 mmHg 91%
    03:00 +13°C° 0 mm 2 mps 746 mmHg 91%
    04:00 +13°C° 0 mm 2 mps 747 mmHg 91%
    05:00 +13°C° 0 mm 1 mps 747 mmHg 91%
    06:00 +15°C° 0 mm 1 mps 747 mmHg 85%
    07:00 +18°C° 0 mm 1 mps 747 mmHg 80%
    08:00 +20°C° 0 mm 1 mps 747 mmHg 75%
    09:00 +20°C° 0 mm 2 mps 747 mmHg 70%
    10:00 +23°C° 0 mm 2 mps 747 mmHg 66%
    11:00 +24°C° 0 mm 2 mps 747 mmHg 62%
    12:00 +24°C° 0 mm 2 mps 747 mmHg 60%
    13:00 +25°C° 0 mm 3 mps 747 mmHg 59%
    14:00 +25°C° 0 mm 3 mps 747 mmHg 58%
    15:00 +25°C° 0 mm 3 mps 747 mmHg 60%
    16:00 +25°C° 0 mm 2 mps 747 mmHg 62%
    17:00 +25°C° 0 mm 2 mps 747 mmHg 65%
    18:00 +23°C° 0 mm 1 mps 747 mmHg 71%
    19:00 +21°C° 0 mm 1 mps 746 mmHg 77%
    20:00 +17°C° 0 mm 0 mps 746 mmHg 83%
    21:00 +16°C° 0 mm 0 mps 746 mmHg 84%
    22:00 +16°C° 0 mm 0 mps 746 mmHg 85%
    23:00 +15°C° 0 mm 0 mps 747 mmHg 86%

    22 Julio, Lunes

    Tiempo Temperatura Precipitaciones Viento Presión Humedad
    00:00 +16°C° 0 mm 1 mps 746 mmHg 87%
    01:00 +15°C° 0 mm 1 mps 746 mmHg 88%
    02:00 +15°C° 0 mm 1 mps 746 mmHg 89%
    03:00 +15°C° 0 mm 1 mps 746 mmHg 89%
    04:00 +16°C° 0 mm 1 mps 746 mmHg 89%
    05:00 +16°C° 0 mm 1 mps 745 mmHg 89%
    06:00 +17°C° 0 mm 2 mps 745 mmHg 85%
    07:00 +19°C° 0 mm 2 mps 745 mmHg 82%
    08:00 +20°C° 0 mm 2 mps 745 mmHg 79%
    09:00 +21°C° 0.7 mm 3 mps 745 mmHg 79%
    10:00 +22°C° 0.7 mm 3 mps 744 mmHg 80%
    11:00 +24°C° 0.7 mm 3 mps 744 mmHg 80%
    12:00 +23°C° 1.1 mm 2 mps 744 mmHg 82%
    13:00 +23°C° 1.1 mm 2 mps 744 mmHg 83%
    14:00 +23°C° 1.1 mm 1 mps 744 mmHg 85%
    15:00 +21°C° 0.5 mm 2 mps 743 mmHg 87%
    16:00 +20°C° 0.5 mm 2 mps 743 mmHg 90%
    17:00 +19°C° 0.5 mm 2 mps 743 mmHg 92%
    18:00 +18°C° 0.6 mm 2 mps 743 mmHg 94%
    19:00 +18°C° 0.6 mm 2 mps 743 mmHg 96%
    20:00 +17°C° 0.6 mm 2 mps 743 mmHg 97%
    21:00 +17°C° 0.6 mm 2 mps 743 mmHg 98%
    22:00 +17°C° 0.6 mm 2 mps 743 mmHg 98%
    23:00 +17°C° 0.6 mm 2 mps 743 mmHg 98%

    23 Julio, Martes

    Tiempo Temperatura Precipitaciones Viento Presión Humedad
    00:00 +17°C° 0.6 mm 2 mps 743 mmHg 98%
    01:00 +17°C° 0.6 mm 2 mps 743 mmHg 98%
    02:00 +17°C° 0.6 mm 2 mps 743 mmHg 98%
    03:00 +17°C° 1 mm 3 mps 743 mmHg 98%
    04:00 +16°C° 1 mm 3 mps 742 mmHg 98%
    05:00 +15°C° 1 mm 4 mps 742 mmHg 98%
    06:00 +15°C° 0.8 mm 4 mps 743 mmHg 97%
    07:00 +15°C° 0.8 mm 4 mps 743 mmHg 97%
    08:00 +14°C° 0.8 mm 4 mps 743 mmHg 96%
    09:00 +14°C° 0.5 mm 4 mps 743 mmHg 96%
    10:00 +15°C° 0.5 mm 4 mps 744 mmHg 95%
    11:00 +15°C° 0.5 mm 4 mps 744 mmHg 95%
    12:00 +15°C° 0.1 mm 4 mps 744 mmHg 95%
    13:00 +15°C° 0.1 mm 4 mps 744 mmHg 94%
    14:00 +15°C° 0.1 mm 4 mps 744 mmHg 94%
    15:00 +16°C° 0 mm 3 mps 745 mmHg 93%
    16:00 +17°C° 0 mm 3 mps 745 mmHg 91%
    17:00 +17°C° 0 mm 3 mps 745 mmHg 90%
    18:00 +17°C° 0 mm 3 mps 745 mmHg 88%
    19:00 +17°C° 0 mm 4 mps 745 mmHg 86%
    20:00 +17°C° 0 mm 4 mps 745 mmHg 85%
    21:00 +17°C° 0.1 mm 4 mps 745 mmHg 85%
    22:00 +16°C° 0.1 mm 3 mps 745 mmHg 85%
    23:00 +16°C° 0.1 mm 3 mps 745 mmHg 86%

    24 Julio, Miércoles

    Tiempo Temperatura Precipitaciones Viento Presión Humedad
    00:00 +14°C° 0 mm 3 mps 745 mmHg 87%
    01:00 +13°C° 0 mm 3 mps 745 mmHg 89%
    02:00 +13°C° 0 mm 4 mps 745 mmHg 90%
    03:00 +13°C° 0 mm 4 mps 745 mmHg 90%
    04:00 +12°C° 0 mm 4 mps 745 mmHg 89%
    05:00 +12°C° 0 mm 4 mps 745 mmHg 89%
    06:00 +14°C° 0 mm 4 mps 745 mmHg 84%
    07:00 +15°C° 0 mm 5 mps 745 mmHg 79%
    08:00 +17°C° 0 mm 5 mps 745 mmHg 74%
    09:00 +19°C° 0 mm 5 mps 745 mmHg 67%
    10:00 +20°C° 0 mm 5 mps 745 mmHg 61%
    11:00 +21°C° 0 mm 5 mps 746 mmHg 54%
    12:00 +22°C° 0 mm 5 mps 745 mmHg 54%
    13:00 +23°C° 0 mm 5 mps 745 mmHg 53%
    14:00 +23°C° 0 mm 5 mps 745 mmHg 53%
    15:00 +23°C° 0 mm 4 mps 745 mmHg 58%
    16:00 +23°C° 0 mm 4 mps 745 mmHg 62%
    17:00 +24°C° 0 mm 3 mps 745 mmHg 67%
    18:00 +21°C° 0.1 mm 3 mps 745 mmHg 71%
    19:00 +19°C° 0.1 mm 4 mps 745 mmHg 75%
    20:00 +17°C° 0.1 mm 4 mps 745 mmHg 79%
    21:00 +17°C° 0 mm 4 mps 744 mmHg 81%
    22:00 +16°C° 0 mm 3 mps 744 mmHg 84%
    23:00 +14°C° 0 mm 3 mps 744 mmHg 86%
    Mostrar más